Location: Wien
(48.2082°N, 16.3738°E)
Time: 11:46:31
(UTC+02:00)

CUTE 1.7 + AOD 2 - Pass Details

Date: 25 April 2024
Orbit: 569 x 586 km, 97.8° (Epoch: 25 May)

Event Time Altitude Azimuth Distance (km) Brightness Sun altitude
Rises 03:53:45 0° 22° (NNE) 2,790 ? -16.5°
Reaches altitude 10° 03:56:06 10° 32° (NNE) 1,884 ? -16.2°
Maximum altitude 03:59:46 31° 96° (E) 1,005 ? -15.8°
Drops below altitude 10° 04:03:23 10° 160° (SSE) 1,866 ? -15.3°
Enters shadow 04:04:30 - 166° (SSE) 2,290 ? -15.2°
